Volver al catálogo

KUIPER-00432

ActivoComunicacionesLEO
NORAD 68937·PAYLOAD·🇺🇸 United States

Lanzado Apr 30, 2026 desde Guiana Space Centre

Loading…

Próximos Pases (próximas 24 horas)

TLE

ActualizadoSource: CelesTrak SupGP

Época: Sep 14, 2026, 22:23 UTC

1 68937C 26098U   26257.93273148  .00004028  00000+0  52734-3 0  2571
2 68937  51.9007  18.6924 0000522 103.8194 142.6767 14.79919038    17

Sigue KUIPER-00432 en tiempo real con AllMySat

Download on the App Store